PST,Max TemperatureF,Mean TemperatureF,Min TemperatureF,Max Dew PointF,MeanDew PointF,Min DewpointF,Max Humidity, Mean Humidity, Min Humidity, Max Sea Level PressureIn, Mean Sea Level PressureIn, Min Sea Level PressureIn, Max VisibilityMiles, Mean VisibilityMiles, Min VisibilityMiles, Max Wind SpeedMPH, Mean Wind SpeedMPH, Max Gust SpeedMPH,PrecipitationIn, CloudCover, Events, WindDirDegrees
2012-11-1,64,54,44,48,45,43,100,74,48,30.07,29.99,29.87,10,7,0,8,2,12,T,4,Fog-Rain,315
2012-11-2,56,48,40,49,43,37,100,83,66,30.09,30.06,30.01,10,7,0,7,1,8,0.01,6,Fog-Rain,211
2012-11-3,68,57,45,50,47,44,100,74,48,30.25,30.16,30.06,10,7,1,7,1,10,0.00,4,,200
2012-11-4,73,61,48,52,49,47,93,70,46,30.37,30.32,30.25,10,10,7,8,1,10,0.00,3,,210
2012-11-5,69,57,44,53,47,43,100,77,53,30.38,30.31,30.18,10,4,0,6,0,6,0.00,3,Fog,157
2012-11-6,66,55,44,51,46,43,100,78,56,30.16,30.12,30.04,10,3,0,6,0,7,0.00,4,Fog,2
2012-11-7,58,52,46,50,45,38,100,76,51,30.14,30.07,29.90,10,6,0,9,1,10,0.04,7,Fog-Rain,303
2012-11-8,47,41,34,39,36,32,96,84,71,29.88,29.81,29.76,10,9,2,9,2,14,0.12,6,Rain,190
2012-11-9,45,37,29,37,33,28,100,81,62,29.97,29.92,29.88,10,6,0,8,1,10,0.08,7,Fog-Rain,341
2012-11-10,48,43,37,37,35,31,92,73,53,30.28,30.09,29.94,10,10,4,6,1,15,0.05,7,Rain,344
2012-11-11,46,39,31,37,33,30,100,83,65,30.38,30.33,30.28,10,8,1,6,0,7,0.00,6,,310
2012-11-12,52,47,41,45,42,38,93,82,71,30.33,30.30,30.26,10,8,4,8,2,12,0.14,8,Rain,335
2012-11-13,52,49,45,46,45,44,93,85,77,30.27,30.22,30.17,10,7,2,5,0,6,0.01,7,Rain,323
2012-11-14,51,49,46,45,43,42,93,84,74,30.27,30.22,30.17,10,9,5,6,1,7,0.00,8,,358
2012-11-15,50,45,40,42,40,38,93,80,66,30.15,30.05,29.97,10,9,5,8,2,9,0.00,5,,20
2012-11-16,48,43,37,43,39,36,100,88,76,29.99,29.94,29.82,10,5,0,5,1,22,0.03,7,Fog-Rain,12
2012-11-17,53,44,35,48,40,35,100,88,76,29.96,29.77,29.63,10,4,0,29,4,37,0.14,6,Fog-Rain,319
2012-11-18,52,43,33,40,35,32,100,75,50,30.00,29.96,29.90,10,4,0,24,6,29,0.00,7,Fog,136
2012-11-19,64,58,51,50,39,35,96,70,43,29.92,29.82,29.73,10,10,6,33,19,41,0.21,7,Rain,143
2012-11-20,58,53,47,50,48,41,96,84,72,29.84,29.78,29.72,10,8,2,14,5,18,1.19,7,Rain,82
2012-11-21,53,45,37,44,39,35,93,76,59,30.32,30.11,29.73,10,10,6,23,4,32,0.25,6,Rain,320
2012-11-22,47,40,33,37,35,32,100,86,71,30.38,30.34,30.31,10,6,0,6,1,14,0.00,4,Fog,346
2012-11-23,42,38,33,39,36,32,100,91,82,30.38,30.33,30.28,6,3,0,6,0,7,0.00,7,Fog,18
2012-11-24,49,45,40,47,43,39,93,90,86,30.30,30.20,30.13,10,6,2,7,0,8,0.07,8,Rain,169
2012-11-25,53,48,42,47,45,39,96,84,71,30.15,30.11,30.03,10,8,2,6,1,7,0.04,8,Rain,4
2012-11-26,55,46,36,43,39,35,100,78,55,30.08,30.05,29.98,10,5,0,6,1,7,0.00,5,Fog,20
2012-11-27,43,40,36,40,37,35,100,91,82,30.08,30.01,29.86,10,2,0,10,2,13,0.00,7,Fog,354
2012-11-28,61,50,38,41,38,36,92,66,39,29.83,29.73,29.66,10,10,10,28,10,36,0.00,5,,174
2012-11-29,58,52,45,45,42,34,100,70,40,29.78,29.66,29.56,10,5,1,25,7,31,2.22,8,Rain,324
2012-11-30,59,52,44,48,45,42,100,77,53,29.66,29.61,29.52,10,8,2,20,3,29,0.53,7,Rain,68